Overview Statistics Trail Chart Weather Telemetry Raw packets
 

This is the latest recevied weather packets stored in our database for station/object CE3TDM-10. If no packets are shown the sender has not sent any weather packets the latest 10 day(s).

<< 22 23 24 25 26 27 28 >>
Time Temp. Humidity Pressure Rain* Wind** Luminosity Snow
1787889861 13.33° C 42% 919.8 hPa - - - -
1787886261 15° C 39% 920.2 hPa - - - -
1787885361 16.67° C 38% 920 hPa - - - -
1787884469 21.11° C 36% 919.8 hPa - - - -
1787883560 27.78° C 36% 919.7 hPa - - - -
1787881760 27.78° C 38% 920 hPa - - - -
1787880860 25° C 38% 920 hPa - - - -
1787878227 24.44° C 38% 919.6 hPa - - - -
1787878160 24.44° C 38% 919.6 hPa - - - -
1787877260 24.44° C 38% 919.4 hPa - - - -
1787874560 25° C 38% 918.9 hPa - - - -
1787872760 25° C 38% 918.7 hPa - - - -
1787869160 24.44° C 37% 917.7 hPa - - - -
1787867359 24.44° C 38% 917.3 hPa - - - -
1787866459 24.44° C 37% 917.1 hPa - - - -
1787865559 24.44° C 37% 916.9 hPa - - - -
1787863759 25° C 37% 916.6 hPa - - - -
1787862859 25.56° C 37% 916.7 hPa - - - -
1787861959 25.56° C 37% 916.5 hPa - - - -
1787861058 25.56° C 37% 916.5 hPa - - - -
1787860158 26.11° C 37% 916.4 hPa - - - -
1787859258 25.56° C 37% 916.5 hPa - - - -
1787856812 25° C 36% 916.4 hPa - - - -
1787856558 25° C 36% 916.4 hPa - - - -
1787853858 27.78° C 35% 916.2 hPa - - - -

* Rain since midnight (hover to see other rain measurements)
** Current wind speed in m/s (hover to see current wind gust speed)